METEOSAT 7
1 24932U 97049B   03111.03143520 -.00000019  00000-0  00000+0 0  2750
2 24932   0.3560  78.0836 0000616 272.7334 228.6957  1.00270453 20631
ASTRA 1G
1 25071U 97076A   03108.00000000  .00000114  00000-0  10000-3 0  3990
2 25071   0.0122 319.8851 0002995  65.1991 199.8263  1.00273184 19726
INMARSAT 3-F5
1 25153U 98006B   03107.00268301  .00000135  00000-0  10000-3 0  8723
2 25153   0.4579   3.8033 0003168  24.3611 202.4875  1.00269769 19070
HOT BIRD 4
1 25237U 98013A   03099.84635997  .00000087  00000-0  10000-3 0  3344
2 25237   0.0316 347.7932 0006645  69.4486  98.0254  1.00270260 19044
NOAA 15
1 25338U 98030A   03110.57689885  .00000141  00000-0  79571-4 0   868
2 25338  98.5472 131.0682 0011160 135.1865 225.0217 14.24273648256482
RESURS O1-N4
1 25394U 98043A   03110.56000168  .00000066  00000-0  47716-4 0  4994
2 25394  98.6205 187.3297 0000656 329.1901  30.9240 14.23900198248216
TMSAT
1 25396U 98043C   03110.89731175 -.00000043  00000-0  00000+0 0  8418
2 25396  98.6171 186.7689 0001621 341.0854  19.0266 14.23530196248258
TECHSAT 1B
1 25397U 98043D   03106.93510874 +.00000036 +00000-0 +35152-4 0 01662
2 25397 098.6138 181.6945 0001434 022.9855 337.1386 14.22973451247653
ASTRA 2A
1 25462U 98050A   03108.00000000  .00000144  00000-0  00000+0 0  5414
2 25462   0.0385 308.7109 0004824 280.8620   4.3097  1.00272094 17027
EUTELSAT W2
1 25491U 98056A   03105.84269355  .00000000  00000-0  10000-3 0  5989
2 25491   0.0466 135.2279 0068238 294.0685  93.0438  1.00275633 16617
HOT BIRD 5
1 25495U 98057A   03099.85365163  .00000146  00000-0  00000+0 0  5088
2 25495   0.0280  82.8420 0010247 215.0657 232.9622  1.00274308 16526
SEDSAT 1
1 25509U 98061B   03111.19554192  .00000274  00000-0  43599-4 0  8285
2 25509  31.4270 165.1309 0357143 121.0395 242.5798 14.27485771234124
PAN SAT
1 25520U 98064B   03108.48932447  .00001762  00000-0  83831-4 0  6613
2 25520  28.4625 191.3151 0006052 273.0315  86.9559 15.14187753246521
ISS (ZARYA)
1 25544U 98067A   03111.07217851  .00015921  00000-0  21178-3 0  9133
2 25544  51.6335 307.1542 0006588  41.0009 103.2112 15.58329212252094
ORSTED
1 25635U 99008B   03110.46996386  .00000364  00000-0  99284-4 0  8845
2 25635  96.4614  82.1766 0145519 135.1852 226.1211 14.44928562218734
SUNSAT
1 25636U 99008C   03109.21400086  .00000137  00000-0  43481-4 0  6792
2 25636  96.4627  79.7530 0149423 146.2462 214.8358 14.42999257218416
UOSAT 12
1 25693U 99021A   03111.18881427  .00000198  00000-0  48200-4 0  8952
2 25693  64.5596 182.1735 0025996 312.5928  47.2981 14.76454797215351
FENGYUN 1C
1 25730U 99025A   03110.53421797  .00000018  00000-0  33075-4 0  8164
2 25730  98.6284 132.6354 0014159 185.2979 174.8046 14.11740820203239
ASTRA 1H
1 25785U 99033A   03108.00000000  .00000114  00000-0  10000-3 0  3795
2 25785   0.0122 319.8851 0002995  65.1991 199.8210  1.00273184 14084
TERRA
1 25994U 99068A   03111.11493709  .00000268  00000-0  69536-4 0  8999
2 25994  98.1869 186.3454 0000900  89.7078 270.4227 14.57137826177633
JAWSAT
1 26061U 00004A   03111.23206292  .00000337  00000-0  13030-3 0  8173
2 26061 100.1946 179.7098 0035841 105.5368 254.9774 14.37900803169399
OPAL
1 26063U 00004C   03111.24019011  .00000085  00000-0  49381-4 0  7670
2 26063 100.2014 176.9701 0037338 112.7397 247.7735 14.35508238169237
ASUSAT
1 26065U 00004E   03111.19582036  .00000092  00000-0  51830-4 0  7858
2 26065 100.1985 177.0816 0037982 114.3787 246.1363 14.35538265169222
GOES 11
1 26352U 00022A   03110.47430047 -.00000041  00000-0  10000-3 0  1202
2 26352   0.2918  98.5128 0002145 271.5562 254.7703  1.00272661 10849
EUTELSAT W4
1 26369U 00028A   03105.78126854  .00000150  00000-0  00000+0 0  3759
2 26369   0.0567  31.2297 0002759 330.6543 158.9819  1.00272063 10617
FENGYUN 2B
1 26382U 00032A   03110.28188384 -.00000340  00000-0  00000+0 0  8348
2 26382   0.4196 292.3754 0001017 265.2454 216.1954  1.00282890 10326
EUTELSAT W1
1 26487U 00052A   03107.17691552  .00000063  00000-0  10000-3 0  3853
2 26487   0.0211 147.4715 0005563 274.1758 216.8781  1.00274473  9599
ASTRA 2B
1 26494U 00054A   03108.00000000  .00000144  00000-0  00000+0 0  2627
2 26494   0.0178 354.5658 0005000 302.8402 296.4717  1.00276704  9500
NOAA 16
1 26536U 00055A   03110.24218038  .00000095  00000-0  76238-4 0  2970
2 26536  98.9116  58.1104 0011285 131.2130 229.0014 14.11940082132717
SAUDISAT 1A
1 26545U 00057A   03109.78993856  .00000878  00000-0  13538-3 0  4409
2 26545  64.5590 206.8106 0047523 229.1134 130.5875 14.79138839138126
UNISAT
1 26547U 00057C   03109.40529864  .00001381  00000-0  19663-3 0  4601
2 26547  64.5580 209.9789 0054782 230.4810 129.1428 14.80000506138049
TIUNGSAT 1
1 26548U 00057D   03109.38092459  .00000967  00000-0  14005-3 0  4439
2 26548  64.5580 200.2858 0040729 229.6145 130.1373 14.81472587138222
SAUDISAT 1B
1 26549U 00057E   03109.39583314  .00000637  00000-0  10582-3 0  7316
2 26549  64.5526 212.4440 0051995 228.7095 130.9520 14.78067195137981
AMSAT OSCAR 40
1 26609U 00072B   03109.00807478 -.00000346  00000-0  10000-3 0  3250
2 26609   8.5228  53.4139 7957312 165.7240 252.3808  1.25596241 11335
GOES 12
1 26871U 01031A   03110.13768469 -.00000261  00000-0  10000-3 0  9273
2 26871   0.1777 274.5508 0000800  90.2220 176.3837  1.00347348  6441
PCSAT
1 26931U 01043C   03110.55066679  .00000065  00000-0  58014-4 0  4547
2 26931  67.0468  98.6169 0005940 274.7897  85.2524 14.29148598 81067
SAPPHIRE
1 26932U 01043D   03110.24141634  .00000048  00000-0  51135-4 0  4480
2 26932  67.0534  99.1047 0003964 264.8496  95.2152 14.29318295 81041
ENVISAT
1 27386U 02009A   03111.23175986  .00000117  00000-0  59596-4 0    60
2 27386  98.5444 178.9048 0000909  88.7274 271.4011 14.32247374 59572
IDEFIX/ARIANE 42P
1 27422U 02021B   03110.56193277  .00000119  00000-0  65719-4 0  2847
2 27422  98.6866 189.4522 0012121 336.2082  23.8538 14.28003263 50164
FENGYUN 1D
1 27431U 02024B   03110.86993701 -.00000043  00000-0 -21096-6 0  2652
2 27431  98.7550 158.1737 0014497 313.8568  46.1404 14.09184421 48009
NOAA 17
1 27453U 02032A   03110.58454613  .00000194  00000-0  10513-3 0  3811
2 27453  98.7446 181.4415 0012137 175.5609 184.5680 14.23331530 42645
HOT BIRD 6
1 27499U 02038A   03104.14052927  .00000000  00000-0  10000-3 0   739
2 27499   0.0313 303.0505 0012771 138.1476 184.1937  1.00273600  2378
RUBIN 2
1 27605U 02058A   03111.22440140  .00000389  00000-0  83609-4 0  1136
2 27605  64.5590  10.0050 0034960  84.7581 275.7508 14.71466625 17882
